Location: El Azufral
(10.3513°N, 67.1528°W)
Time: 09:19:46
(UTC+00:00)

Cosmos 1331 Rocket - Pass Details

Date: 13 June 2024
Orbit: 748 x 774 km, 74.0° (Epoch: 19 July)

Event Time Altitude Azimuth Distance (km) Brightness Sun altitude
Rises 23:01:13 0° 342° (NNW) 3,185 7.9 -3.2°
Reaches altitude 10° 23:03:35 10° 339° (NNW) 2,260 7.2 -3.7°
Maximum altitude 23:08:39 66° 258° (WSW) 815 4.5 -4.9°
Drops below altitude 10° 23:13:43 10° 176° (S) 2,259 6.2 -6.0°
Sets 23:16:05 0° 174° (S) 3,185 6.9 -6.5°
